[[{"header":{"parameterUnit":"m.s-1","parameterCategory":1,"la1":30.2992,"la2":30.254,"lo1":-89.0895,"lo2":-89.0443,"dy":0.0025,"dx":0.0025,"nx":19,"ny":19,"refTime":"2026-05-05T21:00:00:Z","depth":0,"parameterNumber":2,"parameterNumberName":"U-component_of_WINDS"},"data":[0,0,0,-1.0954,-1.0955,-1.0982,-1.0982,-1.1012,-1.1013,0,0,0,0,0,0,0,0,0,0,0,-1.0943,-1.0943,-1.0954,-1.0955,-1.0982,-1.0982,-1.1012,-1.1013,0,0,0,0,0,0,0,0,0,0,0,-1.0943,-1.0943,-1.0943,-1.0955,-1.0982,-1.0982,-1.1012,-1.0994,0,0,0,0,0,0,0,0,0,0,-1.0968,-1.0953,-1.0943,-1.0943,-1.0955,-1.0982,-1.0982,-1.0993,-1.0995,-1.0998,0,-1.0999,0,-1.1006,-1.1014,-1.1014,0,0,0,-1.0958,-1.0951,-1.0962,-1.0943,-1.0955,-1.0982,-1.0971,-1.0994,-1.0996,-1.1001,-1.0999,-1.1,-1.1007,-1.1014,-1.1015,-1.1021,-1.1021,0,0,-1.0956,-1.0945,-1.0961,-1.0964,-1.0958,-1.097,-1.0971,-1.0995,-1.0994,-1.0999,-1.1001,-1.1007,-1.1015,-1.1015,-1.1021,-1.1021,0,0,0,-1.095,-1.0944,-1.0955,-1.0962,-1.0967,-1.097,-1.0972,-1.0992,-1.0997,-1.1002,-1.1007,-1.1015,-1.1015,-1.1021,-1.1021,-1.1005,0,0,0,-1.0949,-1.0941,-1.0954,-1.0947,-1.0967,-1.098,-1.0969,-1.0995,-1.0998,-1.1007,-1.1015,-1.1015,-1.1021,-1.1021,-1.1005,-1.0998,0,0,0,-1.0942,-1.094,-1.0942,-1.0947,-1.0958,-1.098,-1.0986,-1.0996,-1.1002,-1.1014,-1.1015,-1.1021,-1.1021,-1.1006,-1.1,-1.0997,0,0,0,-1.0931,-1.0927,-1.0942,-1.094,-1.0957,-1.0969,-1.0985,-1.0995,-1.1004,-1.1015,-1.1021,-1.1021,-1.1006,-1.1,-1.0998,-1.0993,-1.099,0,0,-1.092,-1.0925,-1.0925,-1.0939,-1.0945,-1.0966,-1.0971,-1.0989,-1.1001,-1.1014,-1.1014,-1.1005,-1.1,-1.0997,-1.0977,-1.0975,0,0,0,-1.0917,-1.0917,-1.0921,-1.0929,-1.0944,-1.0956,-1.0975,-1.0983,-1.0994,-1.1005,-1.1004,-1.1001,-1.1,-1.0999,-1.0997,-1.0997,-1.102,-1.102,-1.102,-1.0884,-1.09,-1.0901,-1.092,-1.0928,-1.0949,-1.0957,-1.0971,-1.0984,-1.0984,-1.0987,-1.0973,-1.097,-1.0969,-1.0969,-1.0986,-1.0986,-1.0986,-1.0986,-1.0869,-1.0871,-1.089,-1.0897,-1.0914,-1.0921,-1.0942,-1.0951,-1.0961,-1.0971,-1.0971,-1.098,-1.0966,-1.0967,-1.0985,-1.0985,-1.0985,-1.0985,-1.0986,-1.0849,-1.0852,-1.0862,-1.0876,-1.0886,-1.0906,-1.0915,-1.093,-1.0945,-1.0945,-1.0951,-1.0952,-1.0954,-1.0947,-1.0947,-1.0947,-1.0947,-1.0947,-1.0947,-1.0824,-1.0835,-1.084,-1.0856,-1.0864,-1.0877,-1.09,-1.0909,-1.0922,-1.0933,-1.0933,-1.0947,-1.0961,-1.0964,-1.0946,-1.0946,-1.0946,-1.0947,-1.0947,-1.0801,-1.0809,-1.0816,-1.0825,-1.0846,-1.0856,-1.0876,-1.0893,-1.0903,-1.0907,-1.0922,-1.093,-1.0936,-1.0938,-1.0941,-1.0918,-1.0918,-1.0918,-1.0918,-1.0784,-1.0789,-1.0801,-1.0813,-1.0827,-1.0847,-1.0857,-1.0876,-1.0896,-1.0904,-1.091,-1.0915,-1.0916,-1.0922,-1.0925,-1.0927,-1.0901,-1.0901,-1.0901,-1.0771,-1.0779,-1.0783,-1.0803,-1.0821,-1.0838,-1.0848,-1.0863,-1.0888,-1.0901,-1.091,-1.0911,-1.092,-1.0922,-1.0933,-1.0936,-1.0941,0,0]},{"header":{"parameterUnit":"m.s-1","parameterCategory":1,"la1":30.2992,"la2":30.254,"lo1":-89.0895,"lo2":-89.0443,"dy":0.0025,"dx":0.0025,"nx":19,"ny":19,"refTime":"2026-05-05T21:00:00:Z","depth":0,"parameterNumber":3,"parameterNumberName":"V-component_of_WINDS"},"data":[0,0,0,6.126,6.126,6.1265,6.1265,6.1278,6.1278,0,0,0,0,0,0,0,0,0,0,0,6.1262,6.1263,6.126,6.126,6.1265,6.1265,6.1278,6.1278,0,0,0,0,0,0,0,0,0,0,0,6.1262,6.1263,6.1263,6.126,6.1265,6.1265,6.1278,6.1272,0,0,0,0,0,0,0,0,0,0,6.1266,6.1272,6.1262,6.1263,6.126,6.1265,6.1265,6.1271,6.1272,6.1278,0,6.1285,0,6.1282,6.1279,6.1279,0,0,0,6.1258,6.1271,6.1269,6.1263,6.126,6.1265,6.1262,6.1272,6.1273,6.1279,6.1285,6.1285,6.1282,6.1279,6.1279,6.1324,6.1325,0,0,6.1257,6.1265,6.1268,6.127,6.1269,6.1262,6.1262,6.1272,6.1279,6.1285,6.1285,6.1282,6.1279,6.128,6.1324,6.1324,0,0,0,6.1258,6.1265,6.1263,6.1269,6.127,6.1262,6.1263,6.1278,6.1277,6.1285,6.1282,6.128,6.128,6.1324,6.1324,6.1349,0,0,0,6.1258,6.1266,6.1263,6.1268,6.127,6.1274,6.1268,6.1276,6.1277,6.1282,6.128,6.128,6.1323,6.1324,6.1347,6.1359,0,0,0,6.1261,6.1266,6.1268,6.1268,6.127,6.1274,6.1273,6.1276,6.1275,6.1279,6.128,6.1323,6.1324,6.1346,6.1356,6.1373,0,0,0,6.1266,6.1289,6.1269,6.1294,6.127,6.1289,6.1272,6.1286,6.1292,6.128,6.1323,6.1324,6.1345,6.1355,6.1372,6.1388,6.1396,0,0,6.13,6.1294,6.1308,6.1289,6.1314,6.1287,6.1315,6.1314,6.1307,6.1319,6.132,6.1348,6.1356,6.1373,6.1436,6.1442,0,0,0,6.1322,6.1332,6.1337,6.1343,6.1343,6.1343,6.1337,6.1336,6.1346,6.1315,6.1358,6.1363,6.1372,6.138,6.1385,6.1392,6.1328,6.1328,6.1328,6.1381,6.1371,6.1394,6.1385,6.1392,6.1385,6.139,6.1388,6.1376,6.1387,6.139,6.143,6.1439,6.1443,6.1451,6.1398,6.1398,6.1398,6.1398,6.143,6.1443,6.1427,6.1444,6.1433,6.1447,6.1442,6.1433,6.1445,6.1426,6.1434,6.1415,6.145,6.1456,6.14,6.14,6.14,6.14,6.1399,6.1467,6.1472,6.1471,6.1481,6.1489,6.1479,6.1491,6.1481,6.1472,6.148,6.1483,6.1482,6.1481,6.1482,6.1482,6.1482,6.1482,6.1482,6.1483,6.1507,6.1505,6.1516,6.1519,6.1522,6.1525,6.152,6.1523,6.1524,6.1515,6.1515,6.1503,6.1455,6.1444,6.1485,6.1484,6.1484,6.1484,6.1484,6.156,6.1546,6.1564,6.1567,6.1569,6.1579,6.1566,6.1574,6.1575,6.1581,6.1567,6.1534,6.1526,6.1522,6.1512,6.1569,6.1569,6.1569,6.1569,6.1591,6.1587,6.1603,6.1609,6.1614,6.1605,6.1626,6.1622,6.1616,6.1616,6.1606,6.1593,6.1589,6.1584,6.1579,6.1569,6.1639,6.1639,6.1639,6.1624,6.1619,6.1639,6.1632,6.1634,6.1635,6.1654,6.1662,6.1652,6.1642,6.1616,6.1613,6.1591,6.1584,6.1572,6.1564,6.1547,0,0]}]]